[[{"header":{"parameterUnit":"m.s-1","parameterCategory":1,"la1":30.2991,"la2":30.254,"lo1":-89.0895,"lo2":-89.0444,"dy":0.0017,"dx":0.0017,"nx":28,"ny":28,"refTime":"2024-11-23T03:00:00:Z","depth":0,"parameterNumber":2,"parameterNumberName":"U-component_of_WINDS"},"data":[0,0,0,0,0,0,0,0,0,0,0,0,0,0,0,0,0,0,0,0,0,0,0,0,0,0,0,0,0,0,0,0,0,0,0,0,0,0,0,0,0,0,0,0,0,0,0,0,0,0,0,0,0,0,0,0,0,0,-0.9406,-0.9406,0,-0.9364,-0.9363,-0.9363,-0.9282,-0.928,-0.9279,-0.9277,-0.9235,-0.9236,-0.9236,0,0,0,0,0,0,0,0,0,0,0,0,0,-0.9421,-0.9421,-0.9407,-0.9406,-0.9405,-0.9364,-0.9363,-0.9363,-0.9282,-0.928,-0.9278,-0.9277,-0.9235,-0.9236,-0.9236,0,0,0,0,0,0,0,0,0,0,0,0,0,-0.94,-0.9421,-0.9407,-0.936,-0.9356,-0.9364,-0.9363,-0.9362,-0.9283,-0.928,-0.9278,-0.9276,-0.9235,-0.9236,-0.9236,-0.9287,0,0,-0.9238,-0.9238,0,0,0,0,0,0,0,0,-0.9401,-0.9399,-0.9368,-0.9363,-0.9358,-0.9326,-0.9353,-0.9337,-0.9283,-0.9311,-0.9277,-0.9275,-0.9267,-0.9265,-0.9262,-0.9285,-0.9283,-0.9238,-0.9238,-0.9238,-0.9238,0,0,0,0,0,0,0,-0.9403,-0.9401,-0.939,-0.9367,-0.9362,-0.9342,-0.9337,-0.9349,-0.9303,-0.9308,-0.9302,-0.9298,-0.9264,-0.9262,-0.9261,-0.9282,-0.9238,-0.9238,-0.9238,-0.9239,-0.9344,-0.9347,0,0,0,0,0,0,-0.9411,-0.9403,-0.9391,-0.9388,-0.9374,-0.9344,-0.9338,-0.9339,-0.9302,-0.9295,-0.93,-0.9294,-0.9262,-0.926,-0.9259,-0.9316,-0.9238,-0.9239,-0.9239,-0.9342,-0.9345,-0.9348,0,0,0,0,0,0,-0.9411,-0.941,-0.9393,-0.9394,-0.939,-0.9346,-0.9348,-0.9339,-0.9336,-0.9296,-0.9288,-0.9306,-0.926,-0.9258,-0.928,-0.9313,-0.9239,-0.9239,-0.9339,-0.9343,-0.9346,-0.9431,0,0,0,0,0,0,-0.9412,-0.9411,-0.9429,-0.9395,-0.939,-0.9414,-0.935,-0.934,-0.9337,-0.933,-0.93,-0.9293,-0.9258,-0.928,-0.9281,-0.9313,-0.924,-0.9336,-0.9341,-0.9345,-0.9425,-0.9437,-0.9447,0,0,0,0,0,-0.9413,-0.9455,-0.9431,-0.943,-0.9412,-0.9416,-0.9414,-0.9373,-0.934,-0.9359,-0.9333,-0.9293,-0.931,-0.9283,-0.9283,-0.9316,-0.9333,-0.9339,-0.9345,-0.942,-0.9434,-0.9447,0,0,0,0,0,0,-0.9495,-0.945,-0.9422,-0.9454,-0.944,-0.9403,-0.9424,-0.939,-0.9385,-0.9378,-0.9328,-0.9322,-0.9351,-0.9336,-0.9307,-0.9363,-0.9315,-0.9321,-0.9372,-0.9386,-0.9397,-0.94,-0.924,0,0,0,0,0,-0.9517,-0.9523,-0.9484,-0.9516,-0.951,-0.9469,-0.9469,-0.9439,-0.9422,-0.9416,-0.9392,-0.9378,-0.9379,-0.9382,-0.9381,-0.9422,-0.9415,-0.9445,-0.9456,-0.9465,-0.9471,-0.9492,-0.9505,-0.9366,-0.9366,-0.9366,0,0,-0.9562,-0.9538,-0.9545,-0.9532,-0.9517,-0.9526,-0.9464,-0.9476,-0.9482,-0.9418,-0.9437,-0.9419,-0.94,-0.9432,-0.9445,-0.942,-0.9508,-0.9472,-0.948,-0.9481,-0.9499,-0.9513,-0.9525,-0.937,-0.9369,-0.9368,0,0,-0.9649,-0.9631,-0.9656,-0.9643,-0.9621,-0.9593,-0.96,-0.9568,-0.9554,-0.9572,-0.9524,-0.9531,-0.9535,-0.9524,-0.9519,-0.9602,-0.9566,-0.9603,-0.9662,-0.9683,-0.9694,-0.9704,-0.9734,-0.9746,-0.9609,-0.961,-0.961,0,-0.9708,-0.9718,-0.9674,-0.9688,-0.9684,-0.9626,-0.9652,-0.9641,-0.9621,-0.962,-0.9592,-0.9596,-0.9579,-0.9608,-0.9629,-0.9626,-0.9632,-0.9607,-0.9696,-0.9705,-0.9714,-0.9742,-0.9754,-0.9614,-0.9614,-0.9613,-0.9613,0,-0.9792,-0.9801,-0.9824,-0.9805,-0.9804,-0.9824,-0.9783,-0.9787,-0.9757,-0.9733,-0.9753,-0.9731,-0.9725,-0.973,-0.9701,-0.9755,-0.974,-0.9705,-0.9656,-0.9732,-0.9758,-0.9769,-0.9621,-0.9619,-0.9618,-0.9617,0,0,-0.9929,-0.9886,-0.9896,-0.9887,-0.9859,-0.9865,-0.9883,-0.9877,-0.9882,-0.987,-0.9884,-0.9889,-0.9857,-0.9851,-0.9821,-0.9839,-0.9908,-0.9802,-0.9801,-0.9823,-0.9967,-0.9993,-1.0007,-0.9884,-0.9885,-0.9887,-0.9968,0,-1.0011,-1.0038,-0.9999,-1.0036,-1.0043,-0.9989,-1.0005,-0.999,-0.9968,-0.9972,-0.9947,-0.9952,-0.9909,-0.9905,-0.9921,-0.9896,-0.9936,-0.989,-0.9897,-0.9898,-0.9904,-1.002,-1.0048,-1.0126,-0.9978,-0.998,-0.9981,0,-1.0109,-1.0101,-1.0139,-1.011,-1.0111,-1.0126,-1.0118,-1.0122,-1.0104,-1.0087,-1.0081,-1.0045,-1.0061,-1.0014,-1.0036,-1.0006,-1.0007,-0.9995,-0.9997,-0.9997,-0.9945,-1.0023,-1.015,-1.0162,-0.9997,-0.9995,-0.9994,0,-1.0206,-1.0205,-1.0228,-1.0222,-1.0188,-1.02,-1.0186,-1.0166,-1.0166,-1.0159,-1.0158,-1.0153,-1.0151,-1.0148,-1.0112,-1.0081,-1.014,-1.0089,-1.0126,-1.0127,-1.0141,-1.0141,-1.0271,-1.0142,-1.0141,-1.0141,-1.0141,0,-1.03,-1.0326,-1.0271,-1.0285,-1.0312,-1.0267,-1.0295,-1.0276,-1.0259,-1.0269,-1.0222,-1.0232,-1.0184,-1.0189,-1.0161,-1.0185,-1.0184,-1.0171,-1.0163,-1.0175,-1.0177,-1.0176,-1.0169,-1.0144,-1.0143,-1.0143,-1.0142,0,-1.0413,-1.0378,-1.0399,-1.0365,-1.0357,-1.0379,-1.035,-1.0362,-1.0337,-1.035,-1.0351,-1.0312,-1.0316,-1.028,-1.0277,-1.0258,-1.0295,-1.0278,-1.0301,-1.0296,-1.0336,-1.0333,-1.0469,-1.0485,-1.0346,-1.0347,-1.0348,0,-1.0476,-1.0495,-1.0463,-1.0466,-1.0455,-1.046,-1.0459,-1.0416,-1.0417,-1.0398,-1.0413,-1.0413,-1.0411,-1.042,-1.0392,-1.0391,-1.0373,-1.0421,-1.0372,-1.0384,-1.0374,-1.0374,-1.0376,-1.0431,-1.0433,-1.0434,-1.0436,0,-1.0592,-1.0574,-1.0573,-1.0568,-1.0568,-1.0561,-1.0551,-1.0557,-1.051,-1.0513,-1.0517,-1.0515,-1.0513,-1.0514,-1.0507,-1.0493,-1.0457,-1.0451,-1.046,-1.0473,-1.0486,-1.048,-1.0329,-1.0448,-1.0447,-1.0446,-1.0445,-1.0445,-1.0682,-1.0696,-1.0676,-1.0678,-1.0666,-1.0658,-1.0668,-1.0644,-1.0646,-1.064,-1.0615,-1.0623,-1.0606,-1.0592,-1.0583,-1.0589,-1.0566,-1.0578,-1.0582,-1.0586,-1.0593,-1.0484,-1.0588,-1.0587,-1.0587,-1.0586,-1.0586,0,-1.0796,-1.0781,-1.0783,-1.077,-1.0772,-1.0737,-1.0725,-1.0729,-1.0737,-1.0724,-1.0722,-1.0727,-1.0728,-1.0701,-1.0698,-1.0709,-1.0693,-1.071,-1.0709,-1.0707,-1.0613,-1.0606,-1.0723,-1.0723,-1.0723,-1.0723,-1.0723,-1.0723,-1.0856,-1.0877,-1.0857,-1.0873,-1.0857,-1.0864,-1.086,-1.0853,-1.0843,-1.085,-1.085,-1.0832,-1.0813,-1.081,-1.0809,-1.0801,-1.0803,-1.0826,-1.0813,-1.0726,-1.0713,-1.07,-1.0694,-1.0827,-1.0827,-1.0905,-1.0906,-1.0907]},{"header":{"parameterUnit":"m.s-1","parameterCategory":1,"la1":30.2991,"la2":30.254,"lo1":-89.0895,"lo2":-89.0444,"dy":0.0017,"dx":0.0017,"nx":28,"ny":28,"refTime":"2024-11-23T03:00:00:Z","depth":0,"parameterNumber":3,"parameterNumberName":"V-component_of_WINDS"},"data":[0,0,0,0,0,0,0,0,0,0,0,0,0,0,0,0,0,0,0,0,0,0,0,0,0,0,0,0,0,0,0,0,0,0,0,0,0,0,0,0,0,0,0,0,0,0,0,0,0,0,0,0,0,0,0,0,0,0,0.058,0.058,0,0.056,0.0559,0.0559,0.0569,0.0569,0.057,0.057,0.0549,0.0548,0.0547,0,0,0,0,0,0,0,0,0,0,0,0,0,0.0628,0.0627,0.058,0.058,0.058,0.056,0.0559,0.0559,0.0569,0.0569,0.057,0.0571,0.055,0.0548,0.0547,0,0,0,0,0,0,0,0,0,0,0,0,0,0.0607,0.0627,0.058,0.0582,0.0582,0.056,0.0559,0.0559,0.0569,0.0569,0.057,0.0571,0.055,0.0549,0.0547,0.0522,0,0,0.0542,0.0542,0,0,0,0,0,0,0,0,0.0609,0.0606,0.0582,0.0582,0.0582,0.0568,0.0569,0.0546,0.0568,0.0574,0.057,0.0571,0.0555,0.0553,0.0547,0.0521,0.052,0.0542,0.0541,0.054,0.054,0,0,0,0,0,0,0,0.061,0.0607,0.0572,0.0582,0.0581,0.0584,0.0582,0.0564,0.056,0.0573,0.0574,0.0571,0.0555,0.0549,0.0547,0.0519,0.0542,0.0541,0.054,0.0539,0.0471,0.047,0,0,0,0,0,0,0.0611,0.0608,0.0573,0.0571,0.0597,0.0583,0.058,0.0571,0.056,0.0559,0.0571,0.0572,0.0551,0.0549,0.0546,0.0516,0.054,0.0539,0.0538,0.0472,0.0471,0.047,0,0,0,0,0,0,0.0612,0.0608,0.0573,0.059,0.0585,0.0581,0.0571,0.0571,0.0564,0.0558,0.0558,0.0565,0.0552,0.0548,0.0528,0.0515,0.0538,0.0537,0.0473,0.0472,0.0471,0.0454,0,0,0,0,0,0,0.0614,0.0608,0.0598,0.0589,0.0585,0.0555,0.057,0.057,0.0562,0.0563,0.0553,0.0552,0.0552,0.053,0.0526,0.0513,0.0536,0.0474,0.0473,0.0471,0.0456,0.0452,0.045,0,0,0,0,0,0.0615,0.0595,0.0598,0.0594,0.0572,0.0554,0.0551,0.0552,0.0561,0.0551,0.0547,0.0552,0.0517,0.0528,0.0524,0.051,0.0475,0.0473,0.0471,0.0457,0.0453,0.045,0,0,0,0,0,0,0.0602,0.0593,0.0597,0.0573,0.0564,0.0556,0.0543,0.0547,0.0536,0.0538,0.0539,0.0536,0.0515,0.0511,0.0522,0.0485,0.0498,0.0495,0.0488,0.0484,0.0481,0.0483,0.0534,0,0,0,0,0,0.0596,0.0582,0.0576,0.0555,0.055,0.0548,0.054,0.0541,0.0532,0.0529,0.0523,0.0515,0.0502,0.0493,0.0481,0.0456,0.0454,0.0444,0.0441,0.0439,0.0436,0.0423,0.0418,0.0464,0.0464,0.0464,0,0,0.0584,0.0578,0.0569,0.0552,0.0546,0.0531,0.0544,0.0529,0.0518,0.0526,0.0506,0.0502,0.0493,0.047,0.0459,0.0465,0.0423,0.0436,0.0434,0.0433,0.042,0.0416,0.0412,0.0462,0.0463,0.0463,0,0,0.0554,0.0548,0.053,0.0524,0.0514,0.0512,0.0508,0.0499,0.0497,0.0477,0.0483,0.0471,0.0448,0.0441,0.0435,0.0404,0.0409,0.04,0.0384,0.037,0.0367,0.0364,0.0352,0.0348,0.0398,0.0398,0.0398,0,0.054,0.0519,0.052,0.0504,0.0497,0.0504,0.0486,0.0479,0.0466,0.0461,0.0468,0.0441,0.0435,0.041,0.0403,0.0397,0.0393,0.0401,0.0367,0.0364,0.0361,0.035,0.0346,0.0397,0.0397,0.0397,0.0397,0,0.0502,0.0487,0.0474,0.0461,0.0452,0.0435,0.0434,0.0425,0.0428,0.0425,0.0405,0.0399,0.0385,0.038,0.0382,0.0356,0.036,0.0367,0.038,0.0356,0.0346,0.0341,0.0395,0.0395,0.0396,0.0396,0,0,0.0462,0.0451,0.0446,0.044,0.043,0.0419,0.0403,0.039,0.0382,0.0373,0.0359,0.0341,0.0348,0.0341,0.0342,0.0331,0.0306,0.0339,0.0339,0.0333,0.0277,0.0271,0.0266,0.031,0.0309,0.0309,0.0278,0,0.0431,0.0402,0.0403,0.0376,0.0363,0.037,0.0356,0.0349,0.0347,0.0335,0.0333,0.0319,0.033,0.0325,0.0315,0.0312,0.0295,0.0314,0.0297,0.0296,0.0298,0.0261,0.0255,0.0226,0.0274,0.0273,0.0273,0,0.0391,0.038,0.0352,0.0345,0.0339,0.0326,0.0315,0.0304,0.0296,0.0296,0.0288,0.0292,0.0275,0.0289,0.0267,0.028,0.0273,0.0271,0.027,0.0267,0.0282,0.0257,0.0217,0.0212,0.0267,0.0267,0.0268,0,0.0364,0.0343,0.0323,0.0318,0.031,0.0301,0.0297,0.029,0.0282,0.0272,0.0267,0.0256,0.025,0.0241,0.0241,0.0251,0.0219,0.0233,0.0218,0.0217,0.0209,0.021,0.0167,0.0207,0.0207,0.0207,0.0207,0,0.0328,0.0311,0.0311,0.0299,0.0279,0.0282,0.0262,0.026,0.0253,0.0241,0.0247,0.0235,0.0237,0.0226,0.0226,0.0208,0.0205,0.0204,0.0204,0.0203,0.0203,0.0198,0.0199,0.0206,0.0206,0.0206,0.0206,0,0.0294,0.0294,0.0273,0.0267,0.0265,0.0251,0.0246,0.0234,0.0233,0.0217,0.0214,0.0212,0.0199,0.0199,0.0184,0.0184,0.0162,0.0164,0.0164,0.0164,0.0149,0.015,0.0101,0.0094,0.0139,0.0138,0.0138,0,0.0271,0.0258,0.025,0.0243,0.0238,0.0225,0.0218,0.022,0.0212,0.0203,0.0192,0.018,0.017,0.0148,0.0146,0.0134,0.0137,0.012,0.0135,0.0134,0.0136,0.0136,0.0135,0.0117,0.0116,0.0116,0.0115,0,0.023,0.0231,0.022,0.0209,0.02,0.0191,0.0183,0.0176,0.0178,0.0169,0.0155,0.0147,0.0132,0.012,0.0109,0.0105,0.011,0.0111,0.0107,0.0105,0.0105,0.0104,0.0155,0.0112,0.0112,0.0113,0.0113,0.0113,0.0201,0.0189,0.0182,0.017,0.0164,0.0157,0.0146,0.0144,0.0133,0.0121,0.0123,0.0108,0.0101,0.0088,0.0083,0.0071,0.0077,0.0071,0.007,0.0068,0.0066,0.0108,0.007,0.007,0.007,0.007,0.007,0,0.016,0.0156,0.0145,0.0133,0.0124,0.013,0.0122,0.0114,0.01,0.0094,0.0084,0.0069,0.0057,0.0054,0.0043,0.0034,0.0036,0.0031,0.0031,0.003,0.0062,0.0066,0.0029,0.0029,0.0029,0.0029,0.0029,0.0029,0.0137,0.0118,0.0118,0.0097,0.0093,0.0079,0.0073,0.0067,0.0062,0.0044,0.0035,0.0033,0.0028,0.0017,0.0006,0.0006,0.0001,-0.0006,-0.0005,0.0024,0.0028,0.0032,0.0036,-0.0006,-0.0006,-0.0036,-0.0036,-0.0036]}]]